Location: Lasqueti Island Observatory
(49.4855°N, 124.2726°W)
Time: 20:30:40
(UTC-07:00)

Daily predictions for brighter satellites

Satellite Brightness Start Highest point End
(mag) Time Altitude Azimuth Time Altitude Azimuth Time Altitude Azimuth
NOSS 2-2 (D) 4.2 21:28:22 10° SW 21:32:39 67° NW 21:37:54 10° NE
Cosmos 1939 Rocket 2.9 21:30:11 10° SSE 21:34:06 89° ENE 21:38:06 10° NNW
Cosmos 1833 Rocket 3.2 21:31:35 10° NNW 21:37:02 47° NE 21:42:26 10° SE
MetOp-A 4.4 21:35:00 10° SSE 21:40:15 59° ENE 21:45:31 10° N
Cosmos 1741 Rocket 4.1 21:35:01 10° NNW 21:40:16 69° ENE 21:45:28 10° SSE
SL-8 R/B 3.7 21:36:09 10° WSW 21:40:59 74° S 21:45:48 10° E
Cosmos 1844 Rocket 3.0 21:39:14 10° SW 21:44:53 74° WNW 21:50:33 10° NNE
PSLV R/B 3.4 21:43:50 10° SSE 21:46:42 48° ENE 21:49:35 10° N
Cosmos 2278 Rocket 2.2 21:41:48 10° SSW 21:47:23 64° ESE 21:53:01 10° NNE
Okean 2 Rocket 3.3 21:45:16 10° S 21:49:32 51° E 21:53:49 10° NNE
CZ-4 SHROUD 3.4 21:47:24 10° SSE 21:50:25 52° ENE 21:53:27 10° N
Cosmos 1844 3.9 21:47:52 10° SSW 21:53:40 83° WNW 21:59:31 10° NNE
Cosmos 1782 Rocket 3.6 21:52:29 10° S 21:56:57 73° E 22:01:26 10° NNE
COSMOS 2487 3.9 21:54:36 10° NW 21:57:58 36° WSW 22:01:18 10° S
Cosmos 614 Rocket 4.0 21:54:18 10° NNW 21:59:26 89° ENE 22:04:31 10° SSE
Cosmos 1812 4.2 21:56:27 10° NNE 21:59:37 23° ENE 22:02:27 12° ESE
Envisat 3.4 21:54:43 10° S 21:59:45 64° WSW 22:04:50 10° NNW
Cosmos 2084 3.2 21:58:54 10° SW 22:02:44 87° NW 22:06:37 10° NE
Cosmos 2082 Rocket 2.2 21:57:23 10° NNW 22:03:08 83° ENE 22:08:39 11° SSE
SL-08 RB Rocket 4.3 21:59:46 11° SE 22:04:02 45° ENE 22:08:30 10° N
AVUM R/B 3.7 22:01:22 10° NNW 22:04:52 58° NE 22:07:46 14° SE
Meteor 2-13 Rocket 4.5 21:59:46 10° S 22:05:52 70° E 22:12:00 10° NNE
Cosmos 1975 Rocket 3.4 22:02:57 10° NNW 22:07:15 66° W 22:11:33 10° S
ATLAS 2AS CENTAUR R/B 4.4 22:00:30 10° NW 22:07:50 35° NNE 22:15:03 10° E
ERS-1 Rocket 4.4 22:06:45 10° SSW 22:11:23 36° W 22:16:02 10° NNW
Cosmos 1420 Rocket 3.9 22:07:22 10° SSW 22:12:35 75° ESE 22:17:48 10° NNE
ISS -3.4 22:10:01 10° SW 22:13:14 61° SSE 22:16:28 10° ENE
APEX 3.8 22:09:35 10° SSW 22:13:45 62° ESE 22:19:15 10° NE
Cosmos 1140 Rocket 4.3 22:09:19 10° NNW 22:14:14 48° WSW 22:19:12 10° S
NOSS 3-1 (C) 4.3 22:09:44 10° NW 22:16:53 59° NE 22:24:23 12° ESE
Cosmos 2218 Rocket 4.2 22:13:01 10° S 22:19:17 61° E 22:25:35 10° NNE
Cosmos 1536 Rocket 3.8 22:15:43 10° N 22:20:11 59° ENE 22:23:51 15° SSE
Meteor 1-14 Rocket 4.2 22:15:54 10° S 22:21:29 65° E 22:27:00 10° NNE
Terra 2.7 22:19:00 14° SE 22:22:32 36° ENE 22:26:54 10° N
CZ-4B R/B 3.6 22:19:20 10° NNE 22:24:11 52° E 22:28:53 10° S
Cosmos 2297 3.7 22:19:24 10° SSW 22:25:03 66° ESE 22:30:45 10° NNE
Cosmos 1184 Rocket 4.1 22:23:31 10° SSW 22:26:44 43° WNW 22:29:58 10° N
Cosmos 1727 Rocket 4.0 22:21:55 10° N 22:28:06 70° ENE 22:33:32 14° SSE
USA 234 4.5 22:25:36 10° E 22:29:37 17° ESE 22:31:10 16° SE
Cosmos 1959 Rocket 4.4 22:23:39 10° S 22:29:43 71° E 22:35:48 10° NNE
NOAA 11 4.2 22:24:52 12° SSE 22:30:00 88° ENE 22:35:33 10° NNW
BREEZE-M DEB 4.1 22:26:40 10° WSW 22:30:38 66° SSE 22:33:11 11° E
Lacrosse 5 rocket 3.0 22:33:05 14° E 22:33:05 14° E 22:34:02 10° E
Cosmos 1242 Rocket 4.2 22:32:23 10° NNW 22:35:41 32° W 22:39:01 10° SSW
H-2A R/B 2.3 22:32:30 17° SE 22:36:34 58° ENE 22:41:43 10° N
SPOT 5 4.2 22:33:52 10° S 22:38:54 43° W 22:44:01 10° NNW
IGS 5A 4.1 22:38:16 20° SE 22:40:47 43° ENE 22:44:45 10° N
USA 245 4.0 22:40:34 13° S 22:43:41 53° W 22:48:11 10° NNW
YAOGAN 6 3.9 22:42:31 10° SSW 22:45:45 34° W 22:49:01 10° NNW
Intercosmos 25 3.8 22:43:37 10° SSW 22:46:48 47° WNW 22:49:58 10° N
Cosmos 1339 Rocket 4.5 22:43:16 10° N 22:49:27 82° E 22:54:22 17° SSE
H-2A R/B 4.3 22:46:34 10° SW 22:49:44 20° W 22:52:52 10° NW
Cosmos 1025 Rocket 4.3 22:46:27 10° N 22:50:16 28° ENE 22:52:22 19° ESE
Lacrosse 5 2.9 22:49:52 21° SSE 22:51:21 24° SE 22:55:25 10° ENE
SL-8 Rocket 4.3 22:45:59 10° SSW 22:52:13 70° WNW 22:58:28 10° N
SPOT 1/Viking Rocket 4.1 22:47:30 11° S 22:52:18 54° W 22:57:28 10° NNW
CZ-4C R/B 3.4 22:50:24 23° SSE 22:52:54 85° ENE 22:57:09 10° NNW
Cosmos 2369 Rocket 3.6 22:53:08 17° ESE 22:54:18 18° E 22:58:01 10° ENE
Gbstr 26 Del rocket 3.3 22:49:12 10° WNW 22:54:23 60° SSW 22:56:49 25° SE
ARGOS 3.6 22:50:50 13° S 22:55:33 58° W 23:00:52 10° NNW
Cosmos 2151 Rocket 3.8 22:51:32 10° SSW 22:56:04 77° W 23:00:38 10° N
Cosmos 1400 Rocket 4.2 23:00:48 22° ESE 23:01:45 24° E 23:05:07 10° NE
Cosmos 1536 4.2 23:04:39 21° ESE 23:05:22 22° E 23:08:28 10° NE
Cosmos 1300 Rocket 3.6 23:03:17 24° SSE 23:05:47 61° E 23:10:11 10° NNE
ASTEX 1 3.7 23:03:14 10° NNE 23:08:05 51° E 23:10:36 27° SSE
Iridium 4 Rocket 4.4 23:03:17 10° N 23:08:53 43° E 23:11:58 24° SE
Okean 1 Rocket 3.1 23:10:37 27° SSE 23:12:56 62° E 23:17:22 10° NNE
SAR-Lupe-2 3.7 23:11:48 36° SE 23:13:03 63° ENE 23:16:37 10° N
Meteor 1-20 Rocket 4.2 23:14:24 14° SSW 23:19:14 84° WNW 23:24:46 10° N
Cosmos 1833 Rocket 3.9 23:15:48 10° NW 23:20:50 34° WSW 23:24:40 16° SSW
Cosmos 1943 Rocket 4.1 23:22:12 13° E 23:22:30 13° E 23:24:47 10° ENE
Timation 1 Rocket 4.3 23:16:50 10° SSW 23:22:51 86° ESE 23:28:54 10° NNE
SL-8 R/B 3.6 23:18:40 10° W 23:23:29 73° S 23:26:15 25° ESE
Okean 1 3.9 23:19:58 10° NNW 23:23:57 52° W 23:26:05 25° SSW
CZ-4 R/B 4.3 23:20:47 10° N 23:25:24 59° WNW 23:29:47 11° SSW
Okean 1-7 Rocket 3.7 23:21:24 10° NNW 23:25:54 74° W 23:28:04 30° S
Cosmos 1503 Rocket 4.0 23:24:09 10° NNW 23:29:25 74° ENE 23:31:55 32° SE
Cosmos 1331 Rocket 3.9 23:25:52 14° SSW 23:30:24 86° WNW 23:35:37 10° NNE
CZ-4B R/B 3.9 23:30:52 10° ENE 23:31:35 11° ENE 23:32:24 10° NE
Cosmos 2278 Rocket 4.2 23:27:01 10° WSW 23:31:56 29° NW 23:36:51 10° NNE
Cosmos 1544 Rocket 4.5 23:34:12 28° ESE 23:34:56 30° E 23:38:44 10° NNE
Cosmos 1812 4.2 23:32:06 10° NNW 23:35:34 31° W 23:37:39 19° SW
DMSP B5D2-2 4.1 23:33:45 10° NNE 23:39:00 85° WNW 23:42:25 22° SSW
NOSS 3-1 (A) 4.0 23:31:39 10° NW 23:39:04 78° SW 23:43:52 28° SSE
Cosmos 1602 3.7 23:38:05 46° SSE 23:39:06 70° E 23:43:02 10° NNE
Cosmos 1110 Rocket 4.3 23:34:02 10° SSW 23:39:14 66° WNW 23:44:26 10° NNE
Cosmos 2082 Rocket 4.3 23:42:46 10° WNW 23:46:30 18° W 23:50:13 10° SW
Genesis I 3.2 23:47:01 45° S 23:48:03 66° SE 23:52:04 10° NE
ISS -2.8 23:46:30 10° W 23:49:43 58° N 23:51:55 19° ENE
BREEZE-M DEB (TANK) 4.4 23:31:13 10° W 23:54:00 90° NNW 23:59:09 10° E
